Tracking 31027 objects as of 19-Jul-2025
HD Live streaming from Space Station
objects crossing your sky now

STARLINK-3902

Track STARLINK-3902 now!
10-day predictions
STARLINK-3902 is classified as:


NORAD ID: 52487
Int'l Code: 2022-049AN
Perigee: 546.0 km
Apogee: 547.7 km
Inclination: 53.2 °
Period: 95.4 minutes
Semi major axis: 6917 km
RCS: Unknown
Launch date: May 6, 2022
Source: United States (US)
Launch site: AIR FORCE EASTERN TEST RANGE (AFETR)
Your satellite tracking list
STARLINK-4324
Track 1 satellite(s)




NASA's NSSDC Master Catalog

Two Line Element Set (TLE):
1 52487U 22049AN  25199.49624556  .00000389  00000-0  42530-4 0  9998
2 52487  53.2179  20.5590 0001247  94.6221 265.4913 15.08840931178278
Source of the keplerian elements: AFSPC